{"data":{"norad_id":43824,"intl_designator":"2018-100B","name":"GSAT-11","alt_names":[],"object_type":"PAYLOAD","status":"ACTIVE","operator":null,"country":"IND","launch_date":"2018-12-04","launch_site_code":"FRGUI","launch_vehicle":null,"mission":null,"orbit_class":"UNKNOWN","rcs_meters":null,"size_class":null,"mass_kg":null,"dimensions":null,"purposes":["comms"],"wikipedia_slug":null,"has_3d_model":false,"image_url":null,"decayed_at":null,"tle_current":{"epoch":"2026-05-25T04:05:45.234816Z","epoch_age_seconds":70554,"freshness":"FRESH","line1":"1 43824U 18100B   26145.17066244 -.00000079  00000+0  00000+0 0  9994","line2":"2 43824   0.0807 260.8426 0007684 179.6937 297.6607  1.00271799 27241","mean_motion":1.00271799,"eccentricity":0.0007684,"inclination_deg":0.0807,"raan_deg":260.8426,"arg_perigee_deg":179.6937,"mean_anomaly_deg":297.6607,"bstar":0,"rev_number":2724,"period_min":1436.0967035208,"perigee_km":35754.19165946,"apogee_km":35818.990413506,"semimajor_km":42164.728036483,"source":"CELESTRAK","updated_at":"2026-05-25T13:38:14.059453Z"}}}